Time,TemperatureF,DewpointF,PressureIn,WindDirection,WindDirectionDegrees,WindSpeedMPH,WindSpeedGustMPH,Humidity,HourlyPrecipIn,Conditions,Clouds,dailyrainin,SolarRadiationWatts/m^2,SoftwareType,DateUTC
2013-08-18 00:01:00,67.1,58.5,30.00,South,187,0.0,0.0,74,0.00,,,0.00,0,WeatherCatV1.20B785,2013-08-18 04:01:00,
2013-08-18 00:06:00,67.2,58.6,30.00,South,187,0.0,2.0,74,0.00,,,0.00,0,WeatherCatV1.20B785,2013-08-18 04:06:00,
2013-08-18 00:11:00,67.2,58.6,30.00,South,187,0.0,0.0,74,0.00,,,0.00,0,WeatherCatV1.20B785,2013-08-18 04:11:00,
2013-08-18 00:16:00,67.2,58.6,30.00,South,187,0.0,0.0,74,0.00,,,0.00,0,WeatherCatV1.20B785,2013-08-18 04:16:00,
2013-08-18 00:21:00,67.2,58.6,30.00,South,187,0.0,0.0,74,0.00,,,0.00,0,WeatherCatV1.20B785,2013-08-18 04:21:00,
2013-08-18 00:26:00,67.2,58.6,30.00,South,187,0.0,0.0,74,0.00,,,0.00,0,WeatherCatV1.20B785,2013-08-18 04:26:00,
2013-08-18 00:31:00,67.2,58.6,30.00,South,187,0.0,0.0,74,0.00,,,0.00,0,WeatherCatV1.20B785,2013-08-18 04:31:00,
2013-08-18 00:36:00,67.1,58.5,30.00,South,187,0.0,0.0,74,0.00,,,0.00,0,WeatherCatV1.20B785,2013-08-18 04:36:00,
2013-08-18 00:41:00,67.1,58.5,30.00,South,187,0.0,1.0,74,0.00,,,0.00,0,WeatherCatV1.20B785,2013-08-18 04:41:00,
2013-08-18 00:46:00,67.0,58.4,30.00,South,187,0.0,0.0,74,0.00,,,0.00,0,WeatherCatV1.20B785,2013-08-18 04:46:00,
2013-08-18 00:51:00,66.9,58.3,29.99,South,187,0.0,0.0,74,0.00,,,0.00,0,WeatherCatV1.20B785,2013-08-18 04:51:00,
2013-08-18 00:56:00,66.8,58.2,29.99,South,187,0.0,0.0,74,0.00,,,0.00,0,WeatherCatV1.20B785,2013-08-18 04:56:00,
2013-08-18 01:01:00,66.8,58.6,29.99,South,187,0.0,0.0,75,0.00,,,0.00,0,WeatherCatV1.20B785,2013-08-18 05:01:00,
2013-08-18 01:06:00,66.7,58.5,29.99,South,187,0.0,0.0,75,0.00,,,0.00,0,WeatherCatV1.20B785,2013-08-18 05:06:00,
2013-08-18 01:11:00,66.6,58.0,29.99,South,187,0.0,0.0,74,0.00,,,0.00,0,WeatherCatV1.20B785,2013-08-18 05:11:00,
2013-08-18 01:16:00,66.5,58.3,29.99,South,187,0.0,0.0,75,0.00,,,0.00,0,WeatherCatV1.20B785,2013-08-18 05:16:00,
2013-08-18 01:21:00,66.4,58.2,29.99,South,187,0.0,0.0,75,0.00,,,0.00,0,WeatherCatV1.20B785,2013-08-18 05:21:00,
2013-08-18 01:26:00,66.3,58.1,29.99,South,187,0.0,0.0,75,0.00,,,0.00,0,WeatherCatV1.20B785,2013-08-18 05:26:00,
2013-08-18 01:31:00,66.3,58.1,29.99,South,187,0.0,0.0,75,0.00,,,0.00,0,WeatherCatV1.20B785,2013-08-18 05:31:00,
2013-08-18 01:36:00,66.3,58.1,29.99,South,187,0.0,0.0,75,0.00,,,0.00,0,WeatherCatV1.20B785,2013-08-18 05:36:00,
2013-08-18 01:41:00,66.2,58.0,29.99,South,187,0.0,0.0,75,0.00,,,0.00,0,WeatherCatV1.20B785,2013-08-18 05:41:00,
2013-08-18 01:46:00,66.1,58.3,29.99,South,187,0.0,0.0,76,0.00,,,0.00,0,WeatherCatV1.20B785,2013-08-18 05:46:00,
2013-08-18 01:51:00,65.9,58.5,29.99,South,187,0.0,0.0,77,0.00,,,0.00,0,WeatherCatV1.20B785,2013-08-18 05:51:00,
2013-08-18 01:56:00,65.7,58.3,29.99,South,187,0.0,0.0,77,0.00,,,0.00,0,WeatherCatV1.20B785,2013-08-18 05:56:00,
2013-08-18 02:01:00,65.6,58.2,29.99,South,187,0.0,0.0,77,0.00,,,0.00,0,WeatherCatV1.20B785,2013-08-18 06:01:00,
2013-08-18 02:06:00,65.4,58.3,29.99,South,187,0.0,0.0,78,0.00,,,0.00,0,WeatherCatV1.20B785,2013-08-18 06:06:00,
2013-08-18 02:11:00,65.2,58.2,29.98,South,187,0.0,0.0,78,0.00,,,0.00,0,WeatherCatV1.20B785,2013-08-18 06:11:00,
2013-08-18 02:16:00,65.0,58.0,29.98,South,187,0.0,0.0,78,0.00,,,0.00,0,WeatherCatV1.20B785,2013-08-18 06:16:00,
2013-08-18 02:21:00,64.9,58.2,29.98,South,187,0.0,0.0,79,0.00,,,0.00,0,WeatherCatV1.20B785,2013-08-18 06:21:00,
2013-08-18 02:26:00,64.7,58.0,29.99,South,187,0.0,0.0,79,0.00,,,0.00,0,WeatherCatV1.20B785,2013-08-18 06:26:00,
2013-08-18 02:31:00,64.5,58.2,29.99,South,187,0.0,0.0,80,0.00,,,0.00,0,WeatherCatV1.20B785,2013-08-18 06:31:00,
2013-08-18 02:36:00,64.4,58.1,29.99,South,187,0.0,0.0,80,0.00,,,0.00,0,WeatherCatV1.20B785,2013-08-18 06:36:00,
2013-08-18 02:41:00,64.3,58.0,29.99,South,187,0.0,0.0,80,0.00,,,0.00,0,WeatherCatV1.20B785,2013-08-18 06:41:00,
2013-08-18 02:46:00,64.2,57.9,29.99,South,187,0.0,0.0,80,0.00,,,0.00,0,WeatherCatV1.20B785,2013-08-18 06:46:00,
2013-08-18 02:51:00,64.2,57.9,29.99,South,187,0.0,0.0,80,0.00,,,0.00,0,WeatherCatV1.20B785,2013-08-18 06:51:00,
2013-08-18 02:56:00,64.1,57.8,29.99,South,187,0.0,0.0,80,0.00,,,0.00,0,WeatherCatV1.20B785,2013-08-18 06:56:00,
2013-08-18 03:01:00,64.1,57.8,29.99,South,187,0.0,0.0,80,0.00,,,0.00,0,WeatherCatV1.20B785,2013-08-18 07:01:00,
2013-08-18 03:06:00,64.2,57.9,29.99,South,187,0.0,0.0,80,0.00,,,0.00,0,WeatherCatV1.20B785,2013-08-18 07:06:00,
2013-08-18 03:11:00,64.2,57.9,29.99,South,187,0.0,0.0,80,0.00,,,0.00,0,WeatherCatV1.20B785,2013-08-18 07:11:00,
2013-08-18 03:16:00,64.3,58.0,29.99,South,187,0.0,0.0,80,0.00,,,0.00,0,WeatherCatV1.20B785,2013-08-18 07:16:00,
2013-08-18 03:21:00,64.4,58.1,29.99,South,187,0.0,0.0,80,0.00,,,0.00,0,WeatherCatV1.20B785,2013-08-18 07:21:00,
2013-08-18 03:26:00,64.5,58.2,29.99,South,187,0.0,0.0,80,0.00,,,0.00,0,WeatherCatV1.20B785,2013-08-18 07:26:00,
2013-08-18 03:31:00,64.6,58.3,29.99,South,187,0.0,0.0,80,0.00,,,0.00,0,WeatherCatV1.20B785,2013-08-18 07:31:00,
2013-08-18 03:36:00,64.7,58.4,29.99,South,187,0.0,0.0,80,0.00,,,0.00,0,WeatherCatV1.20B785,2013-08-18 07:36:00,
2013-08-18 03:41:00,64.7,58.4,29.99,South,187,0.0,0.0,80,0.00,,,0.00,0,WeatherCatV1.20B785,2013-08-18 07:41:00,
2013-08-18 03:46:00,64.7,58.4,29.99,South,187,0.0,0.0,80,0.00,,,0.00,0,WeatherCatV1.20B785,2013-08-18 07:46:00,
2013-08-18 03:51:00,64.7,58.4,29.99,South,187,0.0,0.0,80,0.00,,,0.00,0,WeatherCatV1.20B785,2013-08-18 07:51:00,
2013-08-18 03:56:00,64.5,58.2,29.99,South,187,0.0,0.0,80,0.00,,,0.00,0,WeatherCatV1.20B785,2013-08-18 07:56:00,
2013-08-18 04:01:00,64.4,58.1,29.99,South,187,0.0,0.0,80,0.00,,,0.00,0,WeatherCatV1.20B785,2013-08-18 08:01:00,
2013-08-18 04:06:00,64.3,58.0,29.99,South,187,0.0,0.0,80,0.00,,,0.00,0,WeatherCatV1.20B785,2013-08-18 08:06:00,
2013-08-18 04:11:00,64.2,58.2,29.99,South,187,0.0,0.0,81,0.00,,,0.00,0,WeatherCatV1.20B785,2013-08-18 08:11:00,
2013-08-18 04:16:00,64.0,58.0,29.99,South,187,0.0,0.0,81,0.00,,,0.00,0,WeatherCatV1.20B785,2013-08-18 08:16:00,
2013-08-18 04:21:00,63.8,57.8,29.99,South,187,0.0,0.0,81,0.00,,,0.00,0,WeatherCatV1.20B785,2013-08-18 08:21:00,
2013-08-18 04:26:00,63.6,58.0,29.99,South,187,0.0,0.0,82,0.00,,,0.00,0,WeatherCatV1.20B785,2013-08-18 08:26:00,
2013-08-18 04:31:00,63.5,57.9,29.99,South,187,0.0,0.0,82,0.00,,,0.00,0,WeatherCatV1.20B785,2013-08-18 08:31:00,
2013-08-18 04:36:00,63.3,58.0,29.99,South,187,0.0,0.0,83,0.00,,,0.00,0,WeatherCatV1.20B785,2013-08-18 08:36:00,
2013-08-18 04:41:00,63.2,58.0,29.99,South,187,0.0,0.0,83,0.00,,,0.00,0,WeatherCatV1.20B785,2013-08-18 08:41:00,
2013-08-18 04:46:00,63.1,57.8,29.99,South,187,0.0,0.0,83,0.00,,,0.00,0,WeatherCatV1.20B785,2013-08-18 08:46:00,
2013-08-18 04:51:00,62.9,57.7,29.99,South,187,0.0,0.0,83,0.00,,,0.00,0,WeatherCatV1.20B785,2013-08-18 08:51:00,
2013-08-18 04:56:00,62.8,57.5,29.99,South,187,0.0,0.0,83,0.00,,,0.00,0,WeatherCatV1.20B785,2013-08-18 08:56:00,
2013-08-18 05:01:00,62.7,57.5,29.99,South,187,0.0,0.0,83,0.00,,,0.00,0,WeatherCatV1.20B785,2013-08-18 09:01:00,
2013-08-18 05:06:00,62.6,57.4,29.99,South,187,0.0,0.0,83,0.00,,,0.00,0,WeatherCatV1.20B785,2013-08-18 09:06:00,
2013-08-18 05:11:00,62.5,57.3,29.99,South,187,0.0,0.0,83,0.00,,,0.00,0,WeatherCatV1.20B785,2013-08-18 09:11:00,
2013-08-18 05:16:00,62.3,57.4,29.99,South,187,0.0,0.0,84,0.00,,,0.00,0,WeatherCatV1.20B785,2013-08-18 09:16:00,
2013-08-18 05:21:00,62.2,57.3,29.99,South,187,0.0,0.0,84,0.00,,,0.00,0,WeatherCatV1.20B785,2013-08-18 09:21:00,
2013-08-18 05:26:00,62.1,57.2,29.99,South,187,0.0,0.0,84,0.00,,,0.00,0,WeatherCatV1.20B785,2013-08-18 09:26:00,
2013-08-18 05:31:00,61.9,57.0,29.99,South,187,0.0,0.0,84,0.00,,,0.00,0,WeatherCatV1.20B785,2013-08-18 09:31:00,
2013-08-18 05:36:00,61.7,57.1,29.99,South,187,0.0,0.0,85,0.00,,,0.00,0,WeatherCatV1.20B785,2013-08-18 09:36:00,
2013-08-18 05:41:00,61.6,57.0,29.99,South,187,0.0,0.0,85,0.00,,,0.00,0,WeatherCatV1.20B785,2013-08-18 09:41:00,
2013-08-18 05:46:00,61.4,56.8,29.99,South,187,0.0,0.0,85,0.00,,,0.00,0,WeatherCatV1.20B785,2013-08-18 09:46:00,
2013-08-18 05:51:00,61.3,56.8,29.99,South,187,0.0,0.0,85,0.00,,,0.00,0,WeatherCatV1.20B785,2013-08-18 09:51:00,
2013-08-18 05:56:00,61.2,56.7,30.00,South,187,0.0,0.0,85,0.00,,,0.00,0,WeatherCatV1.20B785,2013-08-18 09:56:00,
2013-08-18 06:01:00,61.0,56.5,29.99,South,187,0.0,0.0,85,0.00,,,0.00,0,WeatherCatV1.20B785,2013-08-18 10:01:00,
2013-08-18 06:06:00,60.9,56.4,30.00,South,187,0.0,0.0,85,0.00,,,0.00,5,WeatherCatV1.20B785,2013-08-18 10:06:00,
2013-08-18 06:11:00,60.7,56.2,30.00,South,187,0.0,0.0,85,0.00,,,0.00,7,WeatherCatV1.20B785,2013-08-18 10:11:00,
2013-08-18 06:16:00,60.5,56.0,30.00,South,187,0.0,0.0,85,0.00,,,0.00,11,WeatherCatV1.20B785,2013-08-18 10:16:00,
2013-08-18 06:21:00,60.4,55.9,29.99,South,187,0.0,0.0,85,0.00,,,0.00,12,WeatherCatV1.20B785,2013-08-18 10:21:00,
2013-08-18 06:26:00,60.3,56.1,29.99,South,187,0.0,0.0,86,0.00,,,0.00,16,WeatherCatV1.20B785,2013-08-18 10:26:00,
2013-08-18 06:31:00,60.2,56.0,29.99,South,187,0.0,0.0,86,0.00,,,0.00,26,WeatherCatV1.20B785,2013-08-18 10:31:00,
2013-08-18 06:36:00,60.1,55.9,30.00,South,187,0.0,0.0,86,0.00,,,0.00,25,WeatherCatV1.20B785,2013-08-18 10:36:00,
2013-08-18 06:41:00,60.0,55.8,30.00,South,187,0.0,0.0,86,0.00,,,0.00,30,WeatherCatV1.20B785,2013-08-18 10:41:00,
2013-08-18 06:46:00,60.0,56.1,30.00,South,187,0.0,0.0,87,0.00,,,0.00,30,WeatherCatV1.20B785,2013-08-18 10:46:00,
2013-08-18 06:51:00,60.0,56.1,30.00,South,187,0.0,0.0,87,0.00,,,0.00,33,WeatherCatV1.20B785,2013-08-18 10:51:00,
2013-08-18 06:56:00,60.1,56.2,30.00,South,187,0.0,0.0,87,0.00,,,0.00,33,WeatherCatV1.20B785,2013-08-18 10:56:00,
2013-08-18 07:01:00,60.2,56.6,30.00,South,187,0.0,0.0,88,0.00,,,0.00,35,WeatherCatV1.20B785,2013-08-18 11:01:00,
2013-08-18 07:06:00,60.3,56.7,30.00,South,187,0.0,0.0,88,0.00,,,0.00,42,WeatherCatV1.20B785,2013-08-18 11:06:00,
2013-08-18 07:11:00,60.4,56.8,30.00,South,187,0.0,0.0,88,0.00,,,0.00,60,WeatherCatV1.20B785,2013-08-18 11:11:00,
2013-08-18 07:16:00,60.6,57.3,30.00,South,187,0.0,0.0,89,0.00,,,0.00,56,WeatherCatV1.20B785,2013-08-18 11:16:00,
2013-08-18 07:21:00,60.8,57.5,30.00,South,187,0.0,0.0,89,0.00,,,0.00,74,WeatherCatV1.20B785,2013-08-18 11:21:00,
2013-08-18 07:26:00,61.0,58.0,30.00,South,187,0.0,0.0,90,0.00,,,0.00,90,WeatherCatV1.20B785,2013-08-18 11:26:00,
2013-08-18 07:31:00,61.3,58.3,30.00,South,187,0.0,0.0,90,0.00,,,0.00,90,WeatherCatV1.20B785,2013-08-18 11:31:00,
2013-08-18 07:36:00,61.7,58.7,29.99,South,188,0.0,1.0,90,0.00,,,0.00,65,WeatherCatV1.20B785,2013-08-18 11:36:00,
2013-08-18 07:41:00,62.0,59.0,30.00,South,187,0.0,0.0,90,0.00,,,0.00,65,WeatherCatV1.20B785,2013-08-18 11:41:00,
2013-08-18 07:46:00,62.3,59.3,30.00,South,187,0.0,0.0,90,0.00,,,0.00,77,WeatherCatV1.20B785,2013-08-18 11:46:00,
2013-08-18 07:51:00,62.6,59.6,30.00,South,187,0.0,0.0,90,0.00,,,0.00,91,WeatherCatV1.20B785,2013-08-18 11:51:00,
2013-08-18 07:56:00,62.9,59.9,30.00,South,187,0.0,0.0,90,0.00,,,0.00,84,WeatherCatV1.20B785,2013-08-18 11:56:00,
2013-08-18 08:01:00,63.2,59.9,30.00,South,188,0.0,0.0,89,0.00,,,0.00,91,WeatherCatV1.20B785,2013-08-18 12:01:00,
2013-08-18 08:06:00,63.5,60.2,30.00,South,188,0.0,0.0,89,0.00,,,0.00,105,WeatherCatV1.20B785,2013-08-18 12:06:00,
2013-08-18 08:11:00,64.0,60.7,30.00,South,183,0.0,0.0,89,0.00,,,0.00,116,WeatherCatV1.20B785,2013-08-18 12:11:00,
2013-08-18 08:16:00,64.4,60.8,30.00,South,188,0.0,0.0,88,0.00,,,0.00,111,WeatherCatV1.20B785,2013-08-18 12:16:00,
2013-08-18 08:21:00,64.8,61.2,30.00,South,187,0.0,0.0,88,0.00,,,0.00,116,WeatherCatV1.20B785,2013-08-18 12:21:00,
2013-08-18 08:26:00,65.1,61.5,30.00,South,187,0.0,1.0,88,0.00,,,0.00,141,WeatherCatV1.20B785,2013-08-18 12:26:00,
2013-08-18 08:31:00,65.4,61.4,30.00,South,188,0.0,0.0,87,0.00,,,0.00,248,WeatherCatV1.20B785,2013-08-18 12:31:00,
2013-08-18 08:36:00,66.0,61.3,30.00,South,188,0.0,1.0,85,0.00,,,0.00,288,WeatherCatV1.20B785,2013-08-18 12:36:00,
2013-08-18 08:41:00,67.0,61.3,30.00,South,188,0.0,0.0,82,0.00,,,0.00,171,WeatherCatV1.20B785,2013-08-18 12:41:00,
2013-08-18 08:46:00,67.7,62.0,29.99,South,188,0.0,1.0,82,0.00,,,0.00,155,WeatherCatV1.20B785,2013-08-18 12:46:00,
2013-08-18 08:51:00,67.9,61.8,30.00,South,188,0.0,0.0,81,0.00,,,0.00,132,WeatherCatV1.20B785,2013-08-18 12:51:00,
2013-08-18 08:56:00,67.9,61.5,30.00,South,187,0.0,1.0,80,0.00,,,0.00,139,WeatherCatV1.20B785,2013-08-18 12:56:00,
2013-08-18 09:01:00,67.9,61.5,30.00,South,188,1.0,1.0,80,0.00,,,0.00,195,WeatherCatV1.20B785,2013-08-18 13:01:00,
2013-08-18 09:06:00,68.3,62.2,30.00,South,188,0.0,0.0,81,0.00,,,0.00,306,WeatherCatV1.20B785,2013-08-18 13:06:00,
2013-08-18 09:11:00,69.2,62.8,30.00,South,188,0.0,1.0,80,0.00,,,0.00,343,WeatherCatV1.20B785,2013-08-18 13:11:00,
2013-08-18 09:16:00,69.7,62.9,30.00,SSW,192,0.0,0.0,79,0.00,,,0.00,287,WeatherCatV1.20B785,2013-08-18 13:16:00,
2013-08-18 09:21:00,70.1,62.9,30.00,SSW,192,0.0,1.0,78,0.00,,,0.00,279,WeatherCatV1.20B785,2013-08-18 13:21:00,
2013-08-18 09:26:00,70.6,62.7,30.00,SSW,192,0.0,1.0,76,0.00,,,0.00,241,WeatherCatV1.20B785,2013-08-18 13:26:00,
2013-08-18 09:31:00,70.6,63.0,29.99,SSW,193,1.0,1.0,77,0.00,,,0.00,167,WeatherCatV1.20B785,2013-08-18 13:31:00,
2013-08-18 09:36:00,70.7,63.1,29.99,SSW,192,0.0,1.0,77,0.00,,,0.00,206,WeatherCatV1.20B785,2013-08-18 13:36:00,
2013-08-18 09:41:00,70.7,62.8,29.99,SSW,193,0.0,1.0,76,0.00,,,0.00,276,WeatherCatV1.20B785,2013-08-18 13:41:00,
2013-08-18 09:46:00,71.0,63.0,29.99,WSW,237,0.0,1.0,76,0.00,,,0.00,318,WeatherCatV1.20B785,2013-08-18 13:46:00,
2013-08-18 09:51:00,71.3,63.3,29.99,WSW,241,0.0,1.0,76,0.00,,,0.00,236,WeatherCatV1.20B785,2013-08-18 13:51:00,
2013-08-18 09:56:00,71.3,63.7,29.99,WSW,244,0.0,1.0,77,0.00,,,0.00,278,WeatherCatV1.20B785,2013-08-18 13:56:00,
2013-08-18 10:01:00,71.4,63.4,29.99,WSW,244,0.0,2.0,76,0.00,,,0.00,255,WeatherCatV1.20B785,2013-08-18 14:01:00,
2013-08-18 10:06:00,71.6,63.6,29.99,WSW,244,0.0,0.0,76,0.00,,,0.00,186,WeatherCatV1.20B785,2013-08-18 14:06:00,
2013-08-18 10:11:00,72.1,63.7,29.99,WSW,244,0.0,0.0,75,0.00,,,0.00,197,WeatherCatV1.20B785,2013-08-18 14:11:00,
2013-08-18 10:16:00,72.5,63.3,29.99,WSW,244,0.0,1.0,73,0.00,,,0.00,318,WeatherCatV1.20B785,2013-08-18 14:16:00,
2013-08-18 10:21:00,73.3,64.1,29.99,WSW,243,1.0,1.0,73,0.00,,,0.00,494,WeatherCatV1.20B785,2013-08-18 14:21:00,
2013-08-18 10:26:00,74.2,65.0,29.99,South,179,0.0,2.0,73,0.00,,,0.00,722,WeatherCatV1.20B785,2013-08-18 14:26:00,
2013-08-18 10:31:00,75.3,64.8,29.99,South,181,0.0,1.0,70,0.00,,,0.00,628,WeatherCatV1.20B785,2013-08-18 14:31:00,
2013-08-18 10:36:00,75.6,64.3,29.99,SSW,192,0.0,1.0,68,0.00,,,0.00,779,WeatherCatV1.20B785,2013-08-18 14:36:00,
2013-08-18 10:41:00,76.2,63.5,29.99,South,173,1.0,3.0,65,0.00,,,0.00,737,WeatherCatV1.20B785,2013-08-18 14:41:00,
2013-08-18 10:46:00,76.8,63.7,29.99,South,171,1.0,1.0,64,0.00,,,0.00,726,WeatherCatV1.20B785,2013-08-18 14:46:00,
2013-08-18 10:51:00,77.8,64.2,29.99,WNW,294,1.0,2.0,63,0.00,,,0.00,819,WeatherCatV1.20B785,2013-08-18 14:51:00,
2013-08-18 10:56:00,77.4,64.2,29.99,SSW,192,0.0,2.0,64,0.00,,,0.00,838,WeatherCatV1.20B785,2013-08-18 14:56:00,
2013-08-18 11:01:00,78.4,63.3,29.99,South,183,2.0,4.0,60,0.00,,,0.00,935,WeatherCatV1.20B785,2013-08-18 15:01:00,
2013-08-18 11:06:00,78.7,62.7,29.98,SE,137,4.0,4.0,58,0.00,,,0.00,429,WeatherCatV1.20B785,2013-08-18 15:06:00,
2013-08-18 11:11:00,78.7,62.2,29.98,West,272,1.0,2.0,57,0.00,,,0.00,482,WeatherCatV1.20B785,2013-08-18 15:11:00,
2013-08-18 11:16:00,78.6,62.1,29.98,SE,145,1.0,2.0,57,0.00,,,0.00,322,WeatherCatV1.20B785,2013-08-18 15:16:00,
2013-08-18 11:21:00,78.7,61.7,29.98,SSE,149,0.0,2.0,56,0.00,,,0.00,336,WeatherCatV1.20B785,2013-08-18 15:21:00,
2013-08-18 11:26:00,78.7,62.7,29.98,SSE,152,3.0,3.0,58,0.00,,,0.00,526,WeatherCatV1.20B785,2013-08-18 15:26:00,
2013-08-18 11:31:00,79.3,61.7,29.98,SSE,157,0.0,4.0,55,0.00,,,0.00,687,WeatherCatV1.20B785,2013-08-18 15:31:00,
2013-08-18 11:36:00,79.8,63.2,29.98,SSE,163,0.0,4.0,57,0.00,,,0.00,814,WeatherCatV1.20B785,2013-08-18 15:36:00,
2013-08-18 11:41:00,79.7,62.1,29.98,SSE,167,0.0,5.0,55,0.00,,,0.00,413,WeatherCatV1.20B785,2013-08-18 15:41:00,
2013-08-18 11:46:00,79.3,61.2,29.98,SSE,153,2.0,3.0,54,0.00,,,0.00,257,WeatherCatV1.20B785,2013-08-18 15:46:00,
2013-08-18 11:51:00,78.8,60.2,29.98,SSE,153,1.0,2.0,53,0.00,,,0.00,197,WeatherCatV1.20B785,2013-08-18 15:51:00,
2013-08-18 11:56:00,78.7,60.1,29.97,SSE,157,0.0,3.0,53,0.00,,,0.00,165,WeatherCatV1.20B785,2013-08-18 15:56:00,
2013-08-18 12:01:00,78.1,59.0,29.97,SSE,159,2.0,5.0,52,0.00,,,0.00,162,WeatherCatV1.20B785,2013-08-18 16:01:00,
2013-08-18 12:06:00,77.8,59.3,29.97,SSE,165,1.0,1.0,53,0.00,,,0.00,151,WeatherCatV1.20B785,2013-08-18 16:06:00,
2013-08-18 12:11:00,77.6,59.1,29.97,SSE,167,0.0,2.0,53,0.00,,,0.00,162,WeatherCatV1.20B785,2013-08-18 16:11:00,
2013-08-18 12:16:00,77.5,59.5,29.97,SSE,157,0.0,3.0,54,0.00,,,0.00,132,WeatherCatV1.20B785,2013-08-18 16:16:00,
2013-08-18 12:21:00,77.2,60.3,29.97,South,176,3.0,3.0,56,0.00,,,0.00,121,WeatherCatV1.20B785,2013-08-18 16:21:00,
2013-08-18 12:26:00,77.0,60.1,29.97,South,173,0.0,2.0,56,0.00,,,0.00,118,WeatherCatV1.20B785,2013-08-18 16:26:00,
2013-08-18 12:31:00,76.9,60.0,29.97,SSE,156,2.0,3.0,56,0.00,,,0.00,134,WeatherCatV1.20B785,2013-08-18 16:31:00,
2013-08-18 12:36:00,76.7,60.8,29.96,SSE,164,1.0,4.0,58,0.00,,,0.00,204,WeatherCatV1.20B785,2013-08-18 16:36:00,
2013-08-18 12:41:00,76.9,62.9,29.97,SSE,164,3.0,3.0,62,0.00,,,0.00,429,WeatherCatV1.20B785,2013-08-18 16:41:00,
2013-08-18 12:46:00,77.4,62.9,29.97,SSE,161,3.0,4.0,61,0.00,,,0.00,564,WeatherCatV1.20B785,2013-08-18 16:46:00,
2013-08-18 12:51:00,78.2,62.7,29.96,NNW,332,0.0,4.0,59,0.00,,,0.00,345,WeatherCatV1.20B785,2013-08-18 16:51:00,
2013-08-18 12:56:00,78.1,59.5,29.96,SSE,156,1.0,6.0,53,0.00,,,0.00,387,WeatherCatV1.20B785,2013-08-18 16:56:00,
2013-08-18 13:01:00,78.7,59.6,29.96,SE,140,0.0,3.0,52,0.00,,,0.00,443,WeatherCatV1.20B785,2013-08-18 17:01:00,
2013-08-18 13:06:00,79.2,59.5,29.96,WNW,296,1.0,3.0,51,0.00,,,0.00,362,WeatherCatV1.20B785,2013-08-18 17:06:00,
2013-08-18 13:11:00,79.0,60.4,29.96,SSE,150,2.0,4.0,53,0.00,,,0.00,353,WeatherCatV1.20B785,2013-08-18 17:11:00,
2013-08-18 13:16:00,79.1,60.5,29.96,SSE,159,4.0,4.0,53,0.00,,,0.00,348,WeatherCatV1.20B785,2013-08-18 17:16:00,
2013-08-18 13:21:00,78.7,59.6,29.95,SE,141,2.0,4.0,52,0.00,,,0.00,408,WeatherCatV1.20B785,2013-08-18 17:21:00,
2013-08-18 13:26:00,79.3,59.6,29.95,South,178,2.0,4.0,51,0.00,,,0.00,519,WeatherCatV1.20B785,2013-08-18 17:26:00,
2013-08-18 13:31:00,80.2,59.3,29.95,SE,144,4.0,5.0,49,0.00,,,0.00,392,WeatherCatV1.20B785,2013-08-18 17:31:00,
2013-08-18 13:36:00,79.4,57.4,29.95,SE,141,2.0,5.0,47,0.00,,,0.00,234,WeatherCatV1.20B785,2013-08-18 17:36:00,
2013-08-18 13:41:00,78.8,58.0,29.95,SSE,161,2.0,5.0,49,0.00,,,0.00,216,WeatherCatV1.20B785,2013-08-18 17:41:00,
2013-08-18 13:46:00,78.5,58.3,29.95,SE,140,0.0,3.0,50,0.00,,,0.00,172,WeatherCatV1.20B785,2013-08-18 17:46:00,
2013-08-18 13:51:00,78.1,58.5,29.95,SSE,157,0.0,3.0,51,0.00,,,0.00,153,WeatherCatV1.20B785,2013-08-18 17:51:00,
2013-08-18 13:56:00,78.0,57.8,29.95,SSE,155,1.0,4.0,50,0.00,,,0.00,149,WeatherCatV1.20B785,2013-08-18 17:56:00,
2013-08-18 14:01:00,77.9,58.8,29.95,SSE,157,0.0,4.0,52,0.00,,,0.00,158,WeatherCatV1.20B785,2013-08-18 18:01:00,
2013-08-18 14:06:00,78.0,58.4,29.94,SSE,156,0.0,2.0,51,0.00,,,0.00,181,WeatherCatV1.20B785,2013-08-18 18:06:00,
2013-08-18 14:11:00,78.1,59.0,29.94,SSE,166,0.0,3.0,52,0.00,,,0.00,220,WeatherCatV1.20B785,2013-08-18 18:11:00,
2013-08-18 14:16:00,78.5,58.8,29.94,SSE,165,0.0,0.0,51,0.00,,,0.00,204,WeatherCatV1.20B785,2013-08-18 18:16:00,
2013-08-18 14:21:00,78.6,60.0,29.94,SSE,166,0.0,2.0,53,0.00,,,0.00,190,WeatherCatV1.20B785,2013-08-18 18:21:00,
2013-08-18 14:26:00,78.4,59.8,29.94,SSE,157,2.0,2.0,53,0.00,,,0.00,279,WeatherCatV1.20B785,2013-08-18 18:26:00,
2013-08-18 14:31:00,78.7,59.6,29.93,SSE,149,1.0,4.0,52,0.00,,,0.00,336,WeatherCatV1.20B785,2013-08-18 18:31:00,
2013-08-18 14:36:00,79.1,59.4,29.93,SSE,163,0.0,4.0,51,0.00,,,0.00,265,WeatherCatV1.20B785,2013-08-18 18:36:00,
2013-08-18 14:41:00,78.9,59.2,29.93,WNW,300,1.0,2.0,51,0.00,,,0.00,162,WeatherCatV1.20B785,2013-08-18 18:41:00,
2013-08-18 14:46:00,78.7,58.5,29.93,SSE,151,0.0,3.0,50,0.00,,,0.00,134,WeatherCatV1.20B785,2013-08-18 18:46:00,
2013-08-18 14:51:00,78.1,58.5,29.92,SSE,164,2.0,5.0,51,0.00,,,0.00,113,WeatherCatV1.20B785,2013-08-18 18:51:00,
2013-08-18 14:56:00,77.8,59.8,29.92,SSE,159,0.0,0.0,54,0.00,,,0.00,107,WeatherCatV1.20B785,2013-08-18 18:56:00,
2013-08-18 15:01:00,77.7,59.7,29.92,SSE,159,0.0,1.0,54,0.00,,,0.00,98,WeatherCatV1.20B785,2013-08-18 19:01:00,
2013-08-18 15:06:00,77.5,59.0,29.92,SSE,159,0.0,0.0,53,0.00,,,0.00,88,WeatherCatV1.20B785,2013-08-18 19:06:00,
2013-08-18 15:11:00,77.3,59.8,29.91,SSE,159,0.0,0.0,55,0.00,,,0.00,76,WeatherCatV1.20B785,2013-08-18 19:11:00,
2013-08-18 15:16:00,77.4,60.0,29.91,SSE,159,0.0,0.0,55,0.00,,,0.00,90,WeatherCatV1.20B785,2013-08-18 19:16:00,
2013-08-18 15:21:00,77.3,59.8,29.91,SSE,159,0.0,1.0,55,0.00,,,0.00,105,WeatherCatV1.20B785,2013-08-18 19:21:00,
2013-08-18 15:26:00,77.5,60.0,29.91,SSE,159,0.0,0.0,55,0.00,,,0.00,88,WeatherCatV1.20B785,2013-08-18 19:26:00,
2013-08-18 15:31:00,77.6,59.6,29.91,SSE,159,0.0,0.0,54,0.00,,,0.00,72,WeatherCatV1.20B785,2013-08-18 19:31:00,
2013-08-18 15:36:00,77.7,59.7,29.90,SSE,159,0.0,0.0,54,0.00,,,0.00,74,WeatherCatV1.20B785,2013-08-18 19:36:00,
2013-08-18 15:41:00,77.8,59.3,29.90,SSE,159,0.0,0.0,53,0.00,,,0.00,93,WeatherCatV1.20B785,2013-08-18 19:41:00,
2013-08-18 15:46:00,77.8,60.3,29.90,SSE,159,0.0,0.0,55,0.00,,,0.00,118,WeatherCatV1.20B785,2013-08-18 19:46:00,
2013-08-18 15:51:00,77.8,59.8,29.90,SSE,160,0.0,0.0,54,0.00,,,0.00,163,WeatherCatV1.20B785,2013-08-18 19:51:00,
2013-08-18 15:56:00,77.9,59.9,29.90,SSE,160,0.0,1.0,54,0.00,,,0.00,132,WeatherCatV1.20B785,2013-08-18 19:56:00,
2013-08-18 16:01:00,78.0,60.0,29.89,SSE,160,0.0,0.0,54,0.00,,,0.00,100,WeatherCatV1.20B785,2013-08-18 20:01:00,
2013-08-18 16:06:00,78.0,61.0,29.89,SSE,160,0.0,1.0,56,0.00,,,0.00,77,WeatherCatV1.20B785,2013-08-18 20:06:00,
2013-08-18 16:11:00,78.0,61.5,29.89,SSE,160,0.0,0.0,57,0.00,,,0.00,70,WeatherCatV1.20B785,2013-08-18 20:11:00,
2013-08-18 16:16:00,78.0,60.5,29.89,SSE,160,0.0,0.0,55,0.00,,,0.00,70,WeatherCatV1.20B785,2013-08-18 20:16:00,
2013-08-18 16:21:00,78.0,60.0,29.88,SSE,160,0.0,0.0,54,0.00,,,0.00,86,WeatherCatV1.20B785,2013-08-18 20:21:00,
2013-08-18 16:26:00,78.1,60.6,29.88,SSE,160,0.0,0.0,55,0.00,,,0.00,98,WeatherCatV1.20B785,2013-08-18 20:26:00,
2013-08-18 16:31:00,78.0,60.5,29.88,SSE,160,0.0,1.0,55,0.00,,,0.00,121,WeatherCatV1.20B785,2013-08-18 20:31:00,
2013-08-18 16:36:00,78.0,60.5,29.88,SSE,160,0.0,1.0,55,0.00,,,0.00,127,WeatherCatV1.20B785,2013-08-18 20:36:00,
2013-08-18 16:41:00,77.9,60.4,29.88,SSE,157,0.0,2.0,55,0.00,,,0.00,113,WeatherCatV1.20B785,2013-08-18 20:41:00,
2013-08-18 16:46:00,77.8,60.3,29.88,SSE,156,1.0,1.0,55,0.00,,,0.00,97,WeatherCatV1.20B785,2013-08-18 20:46:00,
2013-08-18 16:51:00,77.7,59.7,29.87,SSE,152,0.0,3.0,54,0.00,,,0.00,77,WeatherCatV1.20B785,2013-08-18 20:51:00,
2013-08-18 16:56:00,77.7,60.2,29.88,SSE,156,0.0,0.0,55,0.00,,,0.00,63,WeatherCatV1.20B785,2013-08-18 20:56:00,
2013-08-18 17:01:00,77.7,61.2,29.88,SSE,156,0.0,0.0,57,0.00,,,0.00,51,WeatherCatV1.20B785,2013-08-18 21:01:00,
2013-08-18 17:06:00,77.6,61.1,29.88,SSE,156,0.0,0.0,57,0.00,,,0.00,42,WeatherCatV1.20B785,2013-08-18 21:06:00,
2013-08-18 17:11:00,77.5,61.0,29.88,SSE,156,0.0,0.0,57,0.00,,,0.00,39,WeatherCatV1.20B785,2013-08-18 21:11:00,
2013-08-18 17:16:00,77.4,61.0,29.88,SSE,156,0.0,1.0,57,0.00,,,0.00,39,WeatherCatV1.20B785,2013-08-18 21:16:00,
2013-08-18 17:21:00,77.3,61.3,29.88,SSE,156,0.0,1.0,58,0.00,,,0.00,40,WeatherCatV1.20B785,2013-08-18 21:21:00,
2013-08-18 17:26:00,77.1,61.7,29.88,SSE,156,0.0,0.0,59,0.00,,,0.00,42,WeatherCatV1.20B785,2013-08-18 21:26:00,
2013-08-18 17:31:00,77.0,61.5,29.87,SSE,156,0.0,0.0,59,0.00,,,0.00,40,WeatherCatV1.20B785,2013-08-18 21:31:00,
2013-08-18 17:36:00,76.9,61.5,29.87,SSE,156,0.0,1.0,59,0.00,,,0.00,39,WeatherCatV1.20B785,2013-08-18 21:36:00,
2013-08-18 17:41:00,76.7,61.3,29.87,SSE,156,0.0,1.0,59,0.00,,,0.00,33,WeatherCatV1.20B785,2013-08-18 21:41:00,
2013-08-18 17:46:00,76.5,61.1,29.87,SSE,157,2.0,2.0,59,0.00,,,0.00,30,WeatherCatV1.20B785,2013-08-18 21:46:00,
2013-08-18 17:51:00,76.3,61.4,29.87,SSE,156,0.0,0.0,60,0.00,,,0.00,32,WeatherCatV1.20B785,2013-08-18 21:51:00,
2013-08-18 17:56:00,76.1,60.7,29.86,SSE,157,0.0,0.0,59,0.00,,,0.00,28,WeatherCatV1.20B785,2013-08-18 21:56:00,
2013-08-18 18:01:00,76.0,60.6,29.86,SSE,157,0.0,1.0,59,0.00,,,0.00,26,WeatherCatV1.20B785,2013-08-18 22:01:00,
2013-08-18 18:06:00,75.8,60.0,29.86,SSE,157,0.0,0.0,58,0.00,,,0.00,32,WeatherCatV1.20B785,2013-08-18 22:06:00,
2013-08-18 18:11:00,75.7,59.9,29.86,SSE,156,0.0,0.0,58,0.00,,,0.00,39,WeatherCatV1.20B785,2013-08-18 22:11:00,
2013-08-18 18:16:00,75.6,59.8,29.87,SSE,157,0.0,0.0,58,0.00,,,0.00,39,WeatherCatV1.20B785,2013-08-18 22:16:00,
2013-08-18 18:21:00,75.6,59.8,29.86,SSE,156,0.0,0.0,58,0.00,,,0.00,39,WeatherCatV1.20B785,2013-08-18 22:21:00,
2013-08-18 18:26:00,75.5,60.2,29.86,SSE,157,0.0,0.0,59,0.00,,,0.00,37,WeatherCatV1.20B785,2013-08-18 22:26:00,
2013-08-18 18:31:00,75.5,59.7,29.86,SSE,156,0.0,0.0,58,0.00,,,0.00,39,WeatherCatV1.20B785,2013-08-18 22:31:00,
2013-08-18 18:36:00,75.5,60.2,29.86,SSE,157,0.0,0.0,59,0.00,,,0.00,37,WeatherCatV1.20B785,2013-08-18 22:36:00,
2013-08-18 18:41:00,75.4,60.1,29.86,SSE,157,0.0,0.0,59,0.00,,,0.00,30,WeatherCatV1.20B785,2013-08-18 22:41:00,
2013-08-18 18:46:00,75.4,60.1,29.86,SSE,156,0.0,0.0,59,0.00,,,0.00,32,WeatherCatV1.20B785,2013-08-18 22:46:00,
2013-08-18 18:51:00,75.3,60.0,29.86,SSE,156,1.0,1.0,59,0.00,,,0.00,23,WeatherCatV1.20B785,2013-08-18 22:51:00,
2013-08-18 18:56:00,75.2,59.9,29.86,SSE,157,0.0,0.0,59,0.00,,,0.00,18,WeatherCatV1.20B785,2013-08-18 22:56:00,
2013-08-18 19:01:00,75.1,59.8,29.86,SSE,156,0.0,1.0,59,0.00,,,0.00,14,WeatherCatV1.20B785,2013-08-18 23:01:00,
2013-08-18 19:06:00,75.0,59.7,29.86,SSE,157,0.0,0.0,59,0.00,,,0.00,12,WeatherCatV1.20B785,2013-08-18 23:06:00,
2013-08-18 19:11:00,74.9,60.1,29.86,SSE,157,0.0,0.0,60,0.00,,,0.00,9,WeatherCatV1.20B785,2013-08-18 23:11:00,
2013-08-18 19:16:00,74.8,60.0,29.86,SSE,157,0.0,0.0,60,0.00,,,0.00,5,WeatherCatV1.20B785,2013-08-18 23:16:00,
2013-08-18 19:21:00,74.7,59.9,29.86,SSE,164,3.0,3.0,60,0.00,,,0.00,0,WeatherCatV1.20B785,2013-08-18 23:21:00,
2013-08-18 19:26:00,74.4,59.6,29.86,SE,137,2.0,2.0,60,0.00,,,0.00,0,WeatherCatV1.20B785,2013-08-18 23:26:00,
2013-08-18 19:31:00,74.1,59.8,29.86,South,176,1.0,3.0,61,0.00,,,0.00,0,WeatherCatV1.20B785,2013-08-18 23:31:00,
2013-08-18 19:36:00,73.8,59.5,29.86,South,169,0.0,3.0,61,0.00,,,0.00,0,WeatherCatV1.20B785,2013-08-18 23:36:00,
2013-08-18 19:41:00,73.5,59.2,29.86,SE,142,0.0,3.0,61,0.00,,,0.00,0,WeatherCatV1.20B785,2013-08-18 23:41:00,
2013-08-18 19:46:00,73.3,59.5,29.86,SSE,165,2.0,4.0,62,0.00,,,0.00,0,WeatherCatV1.20B785,2013-08-18 23:46:00,
2013-08-18 19:51:00,73.0,59.2,29.86,SSE,165,2.0,3.0,62,0.00,,,0.00,0,WeatherCatV1.20B785,2013-08-18 23:51:00,
2013-08-18 19:56:00,72.8,59.5,29.86,South,173,0.0,0.0,63,0.00,,,0.00,0,WeatherCatV1.20B785,2013-08-18 23:56:00,
2013-08-18 20:01:00,72.6,59.3,29.86,SE,130,1.0,5.0,63,0.00,,,0.00,0,WeatherCatV1.20B785,2013-08-19 00:01:00,
2013-08-18 20:06:00,72.5,59.6,29.86,SE,129,0.0,0.0,64,0.00,,,0.00,0,WeatherCatV1.20B785,2013-08-19 00:06:00,
2013-08-18 20:11:00,72.4,59.5,29.86,NW,321,0.0,0.0,64,0.00,,,0.00,0,WeatherCatV1.20B785,2013-08-19 00:11:00,
2013-08-18 20:16:00,72.2,59.8,29.86,NW,321,0.0,0.0,65,0.00,,,0.00,0,WeatherCatV1.20B785,2013-08-19 00:16:00,
2013-08-18 20:21:00,72.1,59.7,29.86,NW,321,0.0,0.0,65,0.00,,,0.00,0,WeatherCatV1.20B785,2013-08-19 00:21:00,
2013-08-18 20:26:00,72.0,60.0,29.86,NW,321,0.0,0.0,66,0.00,,,0.00,0,WeatherCatV1.20B785,2013-08-19 00:26:00,
2013-08-18 20:31:00,71.9,59.9,29.86,NW,321,0.0,0.0,66,0.00,,,0.00,0,WeatherCatV1.20B785,2013-08-19 00:31:00,
2013-08-18 20:36:00,71.7,59.7,29.86,NNE,24,0.0,1.0,66,0.00,,,0.00,0,WeatherCatV1.20B785,2013-08-19 00:36:00,
2013-08-18 20:41:00,71.6,59.6,29.86,SE,142,1.0,2.0,66,0.00,,,0.00,0,WeatherCatV1.20B785,2013-08-19 00:41:00,
2013-08-18 20:46:00,71.4,59.9,29.86,SE,142,0.0,0.0,67,0.00,,,0.00,0,WeatherCatV1.20B785,2013-08-19 00:46:00,
2013-08-18 20:51:00,71.3,59.8,29.86,SSE,162,0.0,1.0,67,0.00,,,0.00,0,WeatherCatV1.20B785,2013-08-19 00:51:00,
2013-08-18 20:56:00,71.1,59.6,29.86,SSE,161,0.0,0.0,67,0.00,,,0.00,0,WeatherCatV1.20B785,2013-08-19 00:56:00,
2013-08-18 21:01:00,70.9,59.4,29.86,SSE,164,0.0,1.0,67,0.00,,,0.00,0,WeatherCatV1.20B785,2013-08-19 01:01:00,
2013-08-18 21:06:00,70.8,59.3,29.86,SSE,164,0.0,1.0,67,0.00,,,0.00,0,WeatherCatV1.20B785,2013-08-19 01:06:00,
2013-08-18 21:11:00,70.6,59.1,29.86,SSE,164,0.0,1.0,67,0.00,,,0.00,0,WeatherCatV1.20B785,2013-08-19 01:11:00,
2013-08-18 21:16:00,70.5,59.0,29.86,SSE,164,0.0,0.0,67,0.00,,,0.00,0,WeatherCatV1.20B785,2013-08-19 01:16:00,
2013-08-18 21:21:00,70.4,58.9,29.86,SSE,165,0.0,0.0,67,0.00,,,0.00,0,WeatherCatV1.20B785,2013-08-19 01:21:00,
2013-08-18 21:27:00,70.3,59.2,29.85,SSE,165,0.0,0.0,68,0.00,,,0.00,0,WeatherCatV1.20B785,2013-08-19 01:27:00,
2013-08-18 21:32:00,70.2,59.1,29.85,SSE,165,0.0,3.0,68,0.00,,,0.00,0,WeatherCatV1.20B785,2013-08-19 01:32:00,
2013-08-18 21:37:00,70.0,58.9,29.85,SSE,165,0.0,0.0,68,0.00,,,0.00,0,WeatherCatV1.20B785,2013-08-19 01:37:00,
2013-08-18 21:42:00,69.9,58.8,29.85,SSE,165,0.0,0.0,68,0.00,,,0.00,0,WeatherCatV1.20B785,2013-08-19 01:42:00,
2013-08-18 21:47:00,69.9,58.8,29.85,SSE,165,0.0,1.0,68,0.00,,,0.00,0,WeatherCatV1.20B785,2013-08-19 01:47:00,
2013-08-18 21:52:00,69.7,59.1,29.85,SSE,165,1.0,2.0,69,0.00,,,0.00,0,WeatherCatV1.20B785,2013-08-19 01:52:00,
2013-08-18 21:57:00,69.5,58.9,29.85,SSE,165,0.0,0.0,69,0.00,,,0.00,0,WeatherCatV1.20B785,2013-08-19 01:57:00,
2013-08-18 22:02:00,69.4,59.2,29.84,SSE,165,0.0,0.0,70,0.00,,,0.00,0,WeatherCatV1.20B785,2013-08-19 02:02:00,
2013-08-18 22:07:00,69.3,59.1,29.84,SSE,165,0.0,0.0,70,0.00,,,0.00,0,WeatherCatV1.20B785,2013-08-19 02:07:00,
2013-08-18 22:12:00,69.1,58.9,29.84,SSE,165,0.0,0.0,70,0.00,,,0.00,0,WeatherCatV1.20B785,2013-08-19 02:12:00,
2013-08-18 22:17:00,69.0,59.2,29.84,SSE,165,0.0,0.0,71,0.00,,,0.00,0,WeatherCatV1.20B785,2013-08-19 02:17:00,
2013-08-18 22:22:00,68.8,59.0,29.84,SSE,165,0.0,0.0,71,0.00,,,0.00,0,WeatherCatV1.20B785,2013-08-19 02:22:00,
2013-08-18 22:27:00,68.7,59.3,29.83,SSE,165,0.0,1.0,72,0.00,,,0.00,0,WeatherCatV1.20B785,2013-08-19 02:27:00,
2013-08-18 22:32:00,68.5,59.1,29.83,SSE,165,0.0,0.0,72,0.00,,,0.00,0,WeatherCatV1.20B785,2013-08-19 02:32:00,
2013-08-18 22:37:00,68.3,58.9,29.83,SSE,165,0.0,0.0,72,0.00,,,0.00,0,WeatherCatV1.20B785,2013-08-19 02:37:00,
2013-08-18 22:42:00,68.2,58.8,29.83,SSE,165,0.0,0.0,72,0.00,,,0.00,0,WeatherCatV1.20B785,2013-08-19 02:42:00,
2013-08-18 22:47:00,68.0,59.0,29.83,SSE,165,0.0,0.0,73,0.00,,,0.00,0,WeatherCatV1.20B785,2013-08-19 02:47:00,
2013-08-18 22:52:00,67.9,58.9,29.83,SSE,165,0.0,0.0,73,0.00,,,0.00,0,WeatherCatV1.20B785,2013-08-19 02:52:00,
2013-08-18 22:57:00,67.8,58.8,29.83,SSE,165,0.0,0.0,73,0.00,,,0.00,0,WeatherCatV1.20B785,2013-08-19 02:57:00,
2013-08-18 23:02:00,67.6,58.6,29.82,SSE,165,0.0,0.0,73,0.00,,,0.00,0,WeatherCatV1.20B785,2013-08-19 03:02:00,
2013-08-18 23:07:00,67.5,58.5,29.82,SSE,165,0.0,2.0,73,0.00,,,0.00,0,WeatherCatV1.20B785,2013-08-19 03:07:00,
2013-08-18 23:12:00,67.3,58.3,29.82,SSE,165,0.0,0.0,73,0.00,,,0.00,0,WeatherCatV1.20B785,2013-08-19 03:12:00,
2013-08-18 23:17:00,67.2,58.2,29.82,SSE,165,0.0,0.0,73,0.00,,,0.00,0,WeatherCatV1.20B785,2013-08-19 03:17:00,
2013-08-18 23:22:00,67.1,58.5,29.82,SSE,165,0.0,0.0,74,0.00,,,0.00,0,WeatherCatV1.20B785,2013-08-19 03:22:00,
2013-08-18 23:27:00,67.0,58.4,29.82,SSE,165,0.0,0.0,74,0.00,,,0.00,0,WeatherCatV1.20B785,2013-08-19 03:27:00,
2013-08-18 23:32:00,66.8,58.2,29.82,SSE,167,0.0,2.0,74,0.00,,,0.00,0,WeatherCatV1.20B785,2013-08-19 03:32:00,
2013-08-18 23:37:00,66.7,58.5,29.82,SSE,168,0.0,0.0,75,0.00,,,0.00,0,WeatherCatV1.20B785,2013-08-19 03:37:00,
2013-08-18 23:42:00,66.5,58.3,29.82,South,175,0.0,2.0,75,0.00,,,0.00,0,WeatherCatV1.20B785,2013-08-19 03:42:00,
2013-08-18 23:47:00,66.4,58.6,29.82,South,175,0.0,0.0,76,0.00,,,0.00,0,WeatherCatV1.20B785,2013-08-19 03:47:00,
2013-08-18 23:52:00,66.3,58.5,29.82,South,175,0.0,0.0,76,0.00,,,0.00,0,WeatherCatV1.20B785,2013-08-19 03:52:00,
2013-08-18 23:57:00,66.2,58.4,29.82,South,175,0.0,0.0,76,0.00,,,0.00,0,WeatherCatV1.20B785,2013-08-19 03:57:00,